Вернуться в каталог

STARLINK-37663

АктивенСвязьSSO
NORAD 69048·PAYLOAD·🇺🇸 United States

Запущен May 6, 2026 с Vandenberg Space Force Base

Loading…

Ближайшие Пролёты (ближайшие 24 часа)

TLE

СвежийSource: CelesTrak SupGP

Эпоха: Sep 15, 2026, 04:03 UTC

1 69048C 26101Z   26258.16923611 -.00041143  00000+0 -12778-2 0  2588
2 69048  97.2843 111.7800 0002063  90.7498 325.8667 15.33443851    13

Отслеживайте STARLINK-37663 в реальном времени с AllMySat

Download on the App Store